Total_Precipitation_Accumulation
1.22 1.22 1.26 1.25 1.16 1.05 0.98 0.92 0.85 0.82 0.79 0.75 0.72 0.68 0.68 0.70 0.72 0.75 0.75 0.77 0.83 0.83 0.82 0.81 0.79 0.78 0.81 0.83 0.89 0.99 1.13 1.26 1.39 1.28 1.08 0.99 0.98 1.01 1.08 1.00 0.97 0.90 0.82
1.02 1.11 1.17 1.12 1.06 0.99 0.91 0.83 0.77 0.70 0.66 0.65 0.67 0.64 0.59 0.57 0.61 0.67 0.70 0.70 0.79 0.80 0.79 0.79 0.76 0.76 0.80 0.79 0.81 0.88 1.01 1.15 1.28 1.33 1.19 1.08 1.01 0.96 0.96 0.93 0.81 0.77 0.77
0.83 0.84 0.93 0.92 0.90 0.87 0.77 0.68 0.61 0.58 0.58 0.58 0.55 0.54 0.54 0.52 0.52 0.54 0.57 0.60 0.68 0.74 0.75 0.80 0.81 0.81 0.79 0.77 0.81 0.87 0.99 1.11 1.24 1.27 1.20 1.12 1.08 1.02 1.04 0.98 0.88 0.94 0.80
0.76 0.78 0.82 0.80 0.79 0.82 0.74 0.64 0.55 0.50 0.50 0.49 0.44 0.44 0.49 0.48 0.42 0.41 0.45 0.49 0.55 0.58 0.61 0.73 0.79 0.79 0.78 0.82 0.86 0.91 0.98 1.11 1.19 1.22 1.15 1.08 1.06 1.07 1.11 1.15 1.10 1.04 0.92
0.75 0.79 0.85 0.79 0.74 0.78 0.79 0.69 0.59 0.53 0.47 0.47 0.45 0.41 0.43 0.41 0.38 0.39 0.40 0.40 0.46 0.49 0.51 0.59 0.65 0.68 0.70 0.74 0.77 0.85 0.97 1.11 1.17 1.21 1.16 1.10 1.04 1.13 1.17 1.13 1.09 1.10 0.97
0.70 0.81 0.87 0.85 0.82 0.83 0.86 0.81 0.71 0.63 0.55 0.48 0.44 0.41 0.41 0.38 0.38 0.36 0.37 0.39 0.44 0.51 0.56 0.58 0.55 0.57 0.57 0.56 0.63 0.71 0.85 1.03 1.17 1.22 1.18 1.15 1.08 1.11 1.18 1.17 1.17 1.20 1.17
0.76 0.79 0.83 0.85 0.88 0.86 0.83 0.80 0.75 0.68 0.61 0.54 0.45 0.44 0.44 0.37 0.32 0.29 0.30 0.38 0.48 0.55 0.60 0.59 0.49 0.48 0.58 0.60 0.61 0.63 0.73 0.85 1.05 1.23 1.28 1.18 1.13 1.13 1.24 1.29 1.23 1.23 1.21
0.82 0.79 0.75 0.73 0.74 0.69 0.68 0.72 0.70 0.67 0.61 0.56 0.48 0.44 0.44 0.34 0.27 0.26 0.29 0.33 0.40 0.43 0.44 0.50 0.58 0.60 0.54 0.56 0.57 0.68 0.76 0.86 0.94 1.04 1.20 1.12 1.05 1.09 1.18 1.21 1.15 1.12 1.06
0.77 0.72 0.64 0.57 0.58 0.57 0.60 0.62 0.60 0.60 0.57 0.51 0.44 0.42 0.43 0.35 0.26 0.24 0.28 0.34 0.38 0.36 0.32 0.36 0.42 0.46 0.44 0.52 0.63 0.79 0.84 0.94 0.97 1.12 1.13 1.06 1.03 1.03 0.97 0.99 1.16 1.27 1.21
0.66 0.58 0.53 0.48 0.50 0.51 0.53 0.58 0.56 0.52 0.46 0.40 0.38 0.38 0.36 0.33 0.25 0.21 0.23 0.29 0.36 0.33 0.35 0.40 0.39 0.33 0.36 0.47 0.66 0.85 0.98 1.02 1.11 1.29 1.26 1.21 1.12 1.07 0.96 0.98 1.21 1.37 1.33
0.50 0.49 0.49 0.50 0.51 0.49 0.50 0.54 0.50 0.43 0.41 0.39 0.39 0.38 0.33 0.26 0.21 0.16 0.16 0.21 0.27 0.32 0.38 0.43 0.42 0.34 0.35 0.41 0.57 0.76 0.93 0.97 1.18 1.45 1.35 1.18 1.10 1.03 1.01 1.03 1.13 1.19 1.16
0.45 0.48 0.51 0.48 0.44 0.43 0.49 0.51 0.44 0.43 0.43 0.45 0.44 0.38 0.31 0.23 0.17 0.14 0.11 0.12 0.15 0.32 0.45 0.42 0.39 0.38 0.37 0.44 0.59 0.76 0.90 1.08 1.26 1.36 1.18 1.02 0.91 0.88 0.91 0.85 0.81 0.82 0.87
0.43 0.51 0.51 0.45 0.51 0.49 0.45 0.43 0.40 0.41 0.38 0.36 0.37 0.34 0.31 0.27 0.22 0.16 0.13 0.13 0.15 0.26 0.39 0.43 0.41 0.40 0.50 0.71 0.83 0.94 1.08 1.27 1.32 1.19 1.04 0.91 0.78 0.74 0.71 0.70 0.69 0.71 0.73
0.46 0.48 0.47 0.48 0.57 0.55 0.45 0.31 0.29 0.30 0.28 0.28 0.30 0.32 0.33 0.33 0.26 0.20 0.21 0.22 0.23 0.29 0.39 0.51 0.57 0.60 0.75 0.96 1.12 1.22 1.30 1.33 1.19 1.06 0.96 0.83 0.69 0.68 0.67 0.64 0.71 0.70 0.74
0.41 0.44 0.44 0.48 0.50 0.50 0.41 0.26 0.18 0.16 0.13 0.16 0.21 0.23 0.30 0.30 0.20 0.18 0.20 0.23 0.26 0.30 0.36 0.54 0.69 0.73 0.86 1.01 1.15 1.23 1.28 1.27 1.17 1.03 0.92 0.81 0.72 0.67 0.65 0.60 0.65 0.65 0.67
0.40 0.37 0.33 0.34 0.34 0.32 0.34 0.28 0.15 0.07 0.05 0.05 0.07 0.11 0.14 0.16 0.14 0.13 0.17 0.21 0.25 0.33 0.42 0.65 0.76 0.76 0.82 0.92 1.03 1.12 1.12 1.08 1.02 0.99 0.93 0.88 0.79 0.69 0.66 0.62 0.62 0.64 0.69
0.34 0.34 0.26 0.21 0.22 0.22 0.25 0.31 0.29 0.16 0.07 0.05 0.05 0.07 0.09 0.10 0.12 0.13 0.16 0.21 0.25 0.35 0.49 0.68 0.79 0.84 0.87 0.89 0.91 0.95 1.01 1.01 0.93 0.90 0.86 0.81 0.72 0.65 0.63 0.63 0.60 0.61 0.60
0.23 0.20 0.18 0.19 0.17 0.17 0.17 0.19 0.23 0.29 0.27 0.21 0.11 0.08 0.09 0.12 0.15 0.15 0.18 0.22 0.29 0.34 0.49 0.65 0.76 0.82 0.87 0.89 0.87 0.85 0.89 0.91 0.85 0.78 0.74 0.70 0.65 0.62 0.60 0.59 0.55 0.49 0.47
0.19 0.18 0.15 0.13 0.11 0.10 0.10 0.11 0.15 0.20 0.24 0.25 0.22 0.15 0.13 0.16 0.19 0.20 0.23 0.29 0.36 0.38 0.45 0.57 0.68 0.74 0.75 0.76 0.78 0.77 0.80 0.84 0.79 0.73 0.71 0.69 0.65 0.60 0.54 0.46 0.40 0.32 0.35
0.10 0.08 0.08 0.09 0.08 0.07 0.07 0.10 0.13 0.18 0.21 0.22 0.24 0.23 0.19 0.28 0.39 0.36 0.32 0.35 0.37 0.37 0.43 0.54 0.63 0.65 0.64 0.60 0.59 0.61 0.64 0.66 0.68 0.69 0.67 0.65 0.60 0.54 0.44 0.36 0.33 0.32 0.33
0.07 0.05 0.05 0.07 0.06 0.06 0.06 0.07 0.08 0.12 0.17 0.21 0.17 0.17 0.26 0.34 0.43 0.42 0.41 0.44 0.46 0.43 0.43 0.47 0.52 0.56 0.56 0.53 0.49 0.47 0.48 0.52 0.54 0.56 0.59 0.57 0.50 0.43 0.36 0.30 0.28 0.25 0.24
0.06 0.05 0.06 0.06 0.06 0.05 0.05 0.06 0.06 0.07 0.10 0.16 0.16 0.15 0.25 0.30 0.36 0.40 0.43 0.47 0.51 0.49 0.45 0.46 0.48 0.51 0.50 0.47 0.43 0.41 0.41 0.44 0.44 0.46 0.48 0.46 0.40 0.35 0.29 0.24 0.22 0.20 0.19
0.04 0.05 0.06 0.05 0.05 0.04 0.05 0.06 0.06 0.06 0.07 0.11 0.13 0.15 0.22 0.30 0.35 0.41 0.47 0.49 0.51 0.52 0.47 0.44 0.50 0.54 0.47 0.41 0.37 0.35 0.34 0.35 0.33 0.37 0.44 0.45 0.39 0.33 0.28 0.22 0.18 0.16 0.15
0.04 0.03 0.05 0.06 0.05 0.05 0.05 0.05 0.04 0.04 0.04 0.07 0.10 0.12 0.18 0.24 0.28 0.34 0.42 0.47 0.51 0.53 0.52 0.53 0.59 0.55 0.44 0.39 0.34 0.32 0.33 0.35 0.33 0.35 0.37 0.40 0.35 0.27 0.22 0.19 0.17 0.16 0.16
0.04 0.04 0.04 0.04 0.05 0.05 0.04 0.04 0.04 0.04 0.05 0.06 0.07 0.10 0.13 0.16 0.18 0.23 0.31 0.36 0.41 0.44 0.46 0.51 0.51 0.44 0.38 0.34 0.31 0.30 0.33 0.31 0.27 0.30 0.35 0.38 0.31 0.25 0.21 0.18 0.17 0.16 0.16
0.04 0.04 0.03 0.03 0.03 0.03 0.03 0.03 0.03 0.04 0.05 0.05 0.06 0.08 0.10 0.13 0.17 0.20 0.24 0.26 0.29 0.33 0.37 0.42 0.41 0.34 0.27 0.24 0.24 0.22 0.19 0.15 0.14 0.17 0.27 0.31 0.26 0.22 0.23 0.20 0.16 0.16 0.18